PHENX80 YCBG-YCBG

Flight info

Callsign PHENX80
Flight time 0h 0m
Altitude 1000
Route DCT
Aircraft EC45/L-SDFGRY/C

Departure

Time 2026-04-19 07:37
Airport Cambridge Aerodrome (YCBG)

Arrival

Time 2026-04-19 07:38
Airport Cambridge Aerodrome (YCBG)
Time Latitude Longitude Altitude Speed Heading
2026-04-19 07:34 -42.82882 147.47708 38 ft 0 kts 194°
2026-04-19 07:35 -42.82887 147.47697 53 ft 1 kts 193°
2026-04-19 07:36 -42.82885 147.47701 94 ft 0 kts 200°
2026-04-19 07:36 -42.82937 147.47637 216 ft 39 kts 213°
2026-04-19 07:36 -42.83084 147.47422 439 ft 28 kts 223°
2026-04-19 07:36 -42.83194 147.47094 565 ft 57 kts 258°
2026-04-19 07:37 -42.83277 147.46686 839 ft 32 kts 255°
2026-04-19 07:37 -42.83312 147.46492 742 ft 11 kts 258°
2026-04-19 07:37 -42.83318 147.46417 710 ft 16 kts 259°
2026-04-19 07:37 -42.83320 147.46097 754 ft 51 kts 260°
2026-04-19 07:38 -42.83373 147.45460 762 ft 85 kts 258°
2026-04-19 07:38 -42.83474 147.44499 783 ft 120 kts 259°
2026-04-19 07:38 -42.83613 147.43463 842 ft 20 kts 304°
2026-04-19 07:38 -42.83526 147.43022 556 ft 82 kts 259°
2026-04-19 07:39 -42.83547 147.42517 440 ft 70 kts 275°
2026-04-19 07:39 -42.83482 147.41716 824 ft 84 kts 257°
2026-04-19 07:39 -42.83868 147.41017 1044 ft 101 kts 204°
2026-04-19 07:39 -42.84425 147.40439 1246 ft 99 kts 207°
2026-04-19 07:40 -42.84979 147.39815 1345 ft 117 kts 218°
2026-04-19 07:40 -42.85605 147.39060 1497 ft 111 kts 205°
2026-04-19 07:40 -42.86287 147.38795 1486 ft 104 kts 183°
2026-04-19 07:40 -42.87025 147.38723 1499 ft 106 kts 180°
2026-04-19 07:41 -42.87757 147.38687 1501 ft 105 kts 180°
2026-04-19 07:41 -42.88484 147.38676 1059 ft 104 kts 175°
2026-04-19 07:41 -42.89181 147.38766 386 ft 97 kts 169°
2026-04-19 07:41 -42.89804 147.38941 190 ft 81 kts 167°
2026-04-19 07:42 -42.90227 147.39071 249 ft 46 kts 168°
2026-04-19 07:42 -42.90447 147.39135 69 ft 19 kts 168°
2026-04-19 07:42 -42.90488 147.39144 98 ft 0 kts 168°
2026-04-19 07:42 -42.90483 147.39134 314 ft 8 kts 142°
2026-04-19 07:43 -42.90460 147.39035 944 ft 3 kts 19°
2026-04-19 07:43 -42.90370 147.39135 1502 ft 33 kts 18°
2026-04-19 07:43 -42.90076 147.39374 1517 ft 67 kts 20°
2026-04-19 07:43 -42.89538 147.39673 1534 ft 97 kts 17°
2026-04-19 07:44 -42.88944 147.39990 1508 ft 87 kts 21°
2026-04-19 07:44 -42.88320 147.40287 1500 ft 103 kts 19°
2026-04-19 07:44 -42.87641 147.40610 1505 ft 103 kts 19°
2026-04-19 07:44 -42.86965 147.40916 1503 ft 102 kts 19°
2026-04-19 07:45 -42.86289 147.41213 1501 ft 102 kts 19°
2026-04-19 07:45 -42.85643 147.41604 1499 ft 103 kts 38°
2026-04-19 07:45 -42.85123 147.42264 1500 ft 102 kts 45°
2026-04-19 07:45 -42.84643 147.42916 1508 ft 89 kts 45°
2026-04-19 07:46 -42.84260 147.43461 1504 ft 71 kts 53°
2026-04-19 07:46 -42.83968 147.43991 1503 ft 69 kts 55°
2026-04-19 07:46 -42.83714 147.44466 1362 ft 56 kts 55°
2026-04-19 07:46 -42.83493 147.44830 1149 ft 47 kts 55°
2026-04-19 07:47 -42.83284 147.45168 1063 ft 47 kts 55°
2026-04-19 07:47 -42.83103 147.45538 1028 ft 46 kts 72°
2026-04-19 07:47 -42.83016 147.45905 778 ft 36 kts 75°
2026-04-19 07:47 -42.82936 147.46197 624 ft 32 kts 75°
2026-04-19 07:48 -42.82859 147.46485 493 ft 32 kts 75°
2026-04-19 07:48 -42.82786 147.46770 335 ft 31 kts 88°
2026-04-19 07:48 -42.82776 147.47062 247 ft 32 kts 98°
2026-04-19 07:48 -42.82823 147.47385 167 ft 35 kts 109°
2026-04-19 07:49 -42.82872 147.47589 126 ft 9 kts 107°
2026-04-19 07:49 -42.82875 147.47605 110 ft 1 kts 107°
2026-04-19 07:49 -42.82880 147.47602 88 ft 0 kts 107°
2026-04-19 07:49 -42.82884 147.47600 71 ft 0 kts 107°
2026-04-19 07:50 -42.82887 147.47622 59 ft 2 kts 107°
2026-04-19 07:50 -42.82888 147.47626 50 ft 0 kts 107°
2026-04-19 07:50 -42.82889 147.47626 41 ft 0 kts 106°
2026-04-19 07:50 -42.82893 147.47628 52 ft 1 kts 106°
2026-04-19 07:51 -42.82893 147.47642 39 ft 1 kts 104°
2026-04-19 07:51 -42.82893 147.47643 38 ft 0 kts 104°